Zurück zum Katalog

STARLINK-32511

AktivKommunikationVLEO
NORAD 61727·PAYLOAD·🇺🇸 United States

Gestartet Oct 30, 2024 von Cape Canaveral Space Force Station

Loading…

Nächste Überflüge (nächste 24 Stunden)

TLE

AktuellSource: CelesTrak SupGP

Epoche: Sep 15, 2026, 03:26 UTC

1 61727C 24196W   26258.14354167 -.00012443  00000+0 -36776-3 0  2584
2 61727  53.1582 298.5809 0001312  95.0261 199.6233 15.34385492    18

Verfolge STARLINK-32511 in Echtzeit mit AllMySat

Download on the App Store